This demonstration page uses our WeatherBlox Daily Observations layout. Learn more.

Left ArrowRight Arrow

Hourly Observations for April 30, 2016

Temp ( °F °C ) Dew Point ( °F °C ) Humidity (%) Winds ( mph kmh ) Pressure ( in mb ) Visibility ( mi km ) Precip ( " mm )
12:36 am 00:36 Cloudy with Light Rain 46 8 43 6 87 87 NE 18 30 29.88 1012 3 4 0.00 0.00
12:54 am 00:54 Cloudy with Light Rain 46 7.8 43 6.1 89 89 ENE 21 33 29.84 1011 3 4 0.02 0.51
1:18 am 01:18 Cloudy with Light Rain 46 8 43 6 87 87 ENE 20 31 29.85 1011 3 5 0.00 0.00
1:36 am 01:36 Cloudy with Rain 46 7.8 43 6.1 89 89 ENE 17 28 29.83 1010 3 4 0.02 0.51
1:54 am 01:54 Cloudy with Light Rain 46 7.8 43 6.1 89 89 ENE 22 35 29.80 1009 3 5 0.04 1.02
2:54 am 02:54 Cloudy with Light Rain 46 7.8 43 6.1 89 89 ENE 18 30 29.77 1008 5 8 0.01 0.25
3:10 am 03:10 Cloudy with Rain 46 8 43 6 87 87 ENE 15 24 29.77 1008 3 4 0.00 0.00
3:38 am 03:38 Cloudy with Light Rain 46 8 45 7 93 93 ENE 18 30 29.74 1007 6 10 0.00 0.00
3:54 am 03:54 Cloudy with Light Rain 46 7.8 44 6.7 93 93 ENE 15 24 29.75 1008 8 13 0.08 2.03
4:54 am 04:54 Cloudy with Rain 46 7.8 44 6.7 93 93 ENE 14 22 29.74 1007 4 6 0.06 1.52
5:54 am 05:54 Cloudy with Rain 46 7.8 44 6.7 93 93 ENE 15 24 29.73 1007 3 5 0.17 4.32
6:09 am 06:09 Cloudy with Heavy Rain 46 7.8 44 6.7 93 93 NE 13 20 29.71 1006 3 4 0.10 2.54
6:19 am 06:19 Cloudy with Heavy Rain 46 7.8 44 6.7 93 93 NE 13 20 29.71 1006 3 5 0.16 4.06
6:54 am 06:54 Cloudy with Light Rain 46 7.8 44 6.7 93 93 NE 12 19 29.73 1007 5 8 0.21 5.33
7:54 am 07:54 Cloudy 46 7.8 44 6.7 93 93 NE 9 15 29.72 1007 10 16 0.04 1.02
8:54 am 08:54 Cloudy with Mist and Fog 46 7.8 44 6.7 93 93 NE 10 17 29.72 1006 5 8 0.00 0.03
9:25 am 09:25 Cloudy with Light Rain 47 8.3 44 6.7 90 90 NE 10 17 29.71 1006 2 2 0.00 0.03
9:54 am 09:54 Cloudy with Light Rain 47 8.3 45 7.2 93 93 NNE 13 20 29.71 1006 2 2 0.01 0.25
10:28 am 10:28 Cloudy with Light Rain 48 9 46 8 94 94 NE 13 20 29.71 1006 3 4 0.00 0.00
10:54 am 10:54 Cloudy with Mist and Fog 48 8.9 46 7.8 93 93 NE 13 20 29.71 1006 3 4 0.00 0.03
11:54 am 11:54 Cloudy with Mist and Fog 49 9.4 47 8.3 93 93 NE 13 20 29.72 1007 3 4 0.00 0.00
12:54 pm 12:54 Cloudy with Mist and Fog 51 10.6 48 8.9 89 89 NE 13 20 29.71 1006 3 4 0.00 0.00
1:36 pm 13:36 Cloudy with Mist and Fog 51 10.6 48 8.9 89 89 ENE 10 17 29.71 1006 3 4 0.00 0.00
1:54 pm 13:54 Cloudy with Mist and Fog 51 10.6 48 8.9 89 89 NE 9 15 29.73 1007 3 4 0.00 0.00
2:54 pm 14:54 Cloudy with Light Rain 52 11.1 50 10 93 93 ENE 7 11 29.75 1007 2 3 0.01 0.25
3:54 pm 15:54 Cloudy with Light Rain 52 11.1 50 10 93 93 ENE 7 11 29.75 1008 2 3 0.03 0.76
4:22 pm 16:22 Cloudy with Light Rain 52 11 50 10 94 94 NE 8 13 29.77 1008 2 2 0.00 0.00
4:54 pm 16:54 Cloudy with Light Rain 52 11.1 50 10 93 93 NE 7 11 29.77 1008 2 3 0.04 1.02
5:04 pm 17:04 Cloudy with Light Rain 52 11 50 10 94 94 NE 9 15 29.77 1008 2 3 0.00 0.00
5:40 pm 17:40 Cloudy with Light Rain 52 11 48 9 88 88 NE 10 17 29.77 1008 3 5 0.00 0.00
5:54 pm 17:54 Cloudy with Mist and Fog 52 11.1 50 10 93 93 NE 9 15 29.78 1009 3 5 0.02 0.51
6:12 pm 18:12 Cloudy with Mist and Fog 52 11 50 10 94 94 NE 9 15 29.77 1008 5 8 0.00 0.00
6:35 pm 18:35 Cloudy 52 11.1 50 10 93 93 ENE 10 17 29.77 1008 10 16 0.00 0.00
6:54 pm 18:54 Cloudy 52 11.1 49 9.4 89 89 NE 10 17 29.79 1009 9 14 0.00 0.00
7:38 pm 19:38 Cloudy 52 11 50 10 94 94 NE 8 13 29.80 1009 8 13 0.00 0.00
7:42 pm 19:42 Cloudy 52 11 50 10 94 94 NE 9 15 29.80 1009 7 11 0.00 0.00
7:54 pm 19:54 Cloudy 52 11.1 50 10 93 93 NE 10 17 29.81 1009 7 11 0.00 0.00
8:54 pm 20:54 Cloudy with Light Rain 51 10.6 49 9.4 92 92 NE 8 13 29.82 1010 6 10 0.00 0.03
9:30 pm 21:30 Cloudy with Light Rain 51 10.6 49 9.4 92 92 NE 9 15 29.83 1010 3 4 0.00 0.03
9:54 pm 21:54 Cloudy with Light Rain 51 10.6 49 9.4 92 92 ENE 7 11 29.85 1011 3 5 0.03 0.76
10:54 pm 22:54 Cloudy 51 10.6 49 9.4 92 92 E 9 15 29.87 1011 9 14 0.00 0.03
11:54 pm 23:54 Cloudy 50 10 49 9.4 96 96 NE 10 17 29.88 1012 8 13 0.00 0.00

Powered by AerisWeather